Location: Tr�vern
(48.0333°N, 4.6000°W)
Time: 17:50:52
(UTC+00:00)

SAR-Lupe-3 - Pass Details

Date: 14 July 2020
Orbit: 482 x 484 km, 98.1° (Epoch: 21 June)

Event Time Altitude Azimuth Distance (km) Brightness Sun altitude
Rises 01:59:48 0° 13° (NNE) 2,563 9.9 -17.1°
Reaches altitude 10° 02:01:52 10° 13° (NNE) 1,678 8.6 -17.0°
Maximum altitude 02:05:29 86° 284° (WNW) 492 4.5 -16.7°
Enters shadow 02:06:43 39° 198° (SSW) 738 4.9 -16.7°
